Location: Bidwell Hollow
(37.7387°N, 90.1707°W)
Time: 02:34:37
(UTC+00:00)

Tiros 1 despin weight - Pass Details

Date: 21 May 2026
Orbit: 554 x 591 km, 48.2° (Epoch: 6 June)

Event Time Altitude Azimuth Distance (km) Brightness Sun altitude
Rises 15:36:22 0° 294° (WNW) 2,733 ? 54.9°
Reaches altitude 10° 15:38:53 10° 282° (WNW) 1,832 ? 55.3°
Maximum altitude 15:42:23 26° 224° (SW) 1,095 ? 56.0°
Drops below altitude 10° 15:45:53 10° 167° (SSE) 1,822 ? 56.6°
Sets 15:48:22 0° 155° (SSE) 2,714 ? 57.1°
